This demonstration page uses our WeatherBlox Daily Observations layout. Learn more.

Left ArrowRight Arrow

38.89511, -77.03637

Hourly Observations for July 2, 2018

Temp ( °F °C ) Dew Point ( °F °C ) Humidity (%) Winds ( mph kmh ) Pressure ( in mb ) Visibility ( mi km ) Precip ( " mm )
12:52 am 00:52 Clear 81 27.2 74 23.3 79 79 S 3 6 30.05 1018 10 16 N/A
1:52 am 01:52 Clear 81 27.2 75 23.9 82 82 SW 3 6 30.05 1018 10 16 N/A
2:52 am 02:52 Clear 80 26.7 75 23.9 85 85 S 5 7 30.05 1018 10 16 N/A
3:52 am 03:52 Mostly Clear 80 26.7 75 23.9 85 85 SSE 3 6 30.04 1017 7 11 N/A
4:52 am 04:52 Partly Cloudy 79 26.1 75 23.9 88 88 SE 5 7 30.04 1017 7 11 N/A
5:52 am 05:52 Mostly Sunny 78 25.6 75 23.9 90 90 S 6 9 30.05 1018 7 11 N/A
6:52 am 06:52 Partly Cloudy with Mist and Fog 79 26.1 75 23.9 88 88 S 3 6 30.05 1018 6 10 N/A
7:52 am 07:52 Mostly Sunny 80 26.7 75 23.9 85 85 S 8 13 30.06 1018 7 11 N/A
8:52 am 08:52 Mostly Sunny 82 27.8 76 24.4 82 82 S 9 15 30.07 1018 9 14 N/A
9:52 am 09:52 Mostly Sunny 86 30 77 25 75 75 SSE 6 9 30.06 1018 10 16 N/A
10:52 am 10:52 Mostly Sunny 90 32.2 78 25.6 68 68 S 8 13 30.07 1018 10 16 N/A
11:52 am 11:52 Mostly Sunny 92 33.3 76 24.4 60 60 S 10 17 30.07 1018 10 16 N/A
12:52 pm 12:52 Mostly Sunny 94 34.4 76 24.4 56 56 S 9 15 30.06 1018 10 16 N/A
1:52 pm 13:52 Mostly Sunny 95 35 72 22.2 47 47 S 10 17 30.05 1018 10 16 N/A
2:52 pm 14:52 Mostly Sunny 95 35 76 24.4 54 54 S 12 19 30.04 1017 10 16 N/A
3:52 pm 15:52 Mostly Sunny 94 34.4 74 23.3 52 52 S 13 20 30.03 1017 10 16 N/A
4:52 pm 16:52 Mostly Sunny 94 34.4 74 23.3 52 52 S 13 20 30.03 1017 10 16 N/A
5:52 pm 17:52 Mostly Sunny 93 33.9 76 24.4 58 58 S 13 20 30.02 1017 10 16 N/A
6:52 pm 18:52 Mostly Sunny 91 32.8 76 24.4 61 61 S 13 20 30.03 1017 10 16 N/A
7:52 pm 19:52 Mostly Sunny 90 32.2 75 23.9 62 62 S 8 13 30.03 1017 10 16 N/A
8:52 pm 20:52 Mostly Clear 90 32.2 74 23.3 59 59 SSW 3 6 30.05 1018 10 16 N/A
9:52 pm 21:52 Mostly Clear 88 31.1 76 24.4 68 68 S 6 9 30.07 1018 10 16 N/A
10:52 pm 22:52 Mostly Clear 86 30 77 25 75 75 S 3 6 30.09 1019 10 16 N/A
11:52 pm 23:52 Mostly Clear 85 29.4 78 25.6 80 80 SSE 3 6 30.09 1019 10 16 N/A

Powered by AerisWeather